Hourly Data Report for October 18, 2019

WOODSTOCK NEWBRIDGE
NEW BRUNSWICK
Current Station Operator: ECCC - MSC

46°09'08.000" N
67°32'34.000" W
154.00 m
8105603
71606
EWD

Download Data

Hourly Data (October 2019)
Hourly Data Report for October 18, 2019
TIME Temp Definition
°C
Dew Point Definition
°C
Rel Hum Definition
%
Wind Dir Definition
10's deg

Wind Spd Definition
km/h
Visibility Definition
km
Stn Press Definition
kPa
Hmdx Definition


Wind Chill Definition


Weather Definition


00:00 7.4 7.1 98   0   97.01     LegendNANA
01:00 7.4 7.1 98   0   97.03     LegendNANA
02:00 7.8 7.6 98 31 2   97.07     LegendNANA
03:00 6.3 5.6 96 28 4   97.08     LegendNANA
04:00 7.3 7.1 99 25 9   97.18     LegendNANA
05:00 6.8 6.2 96 27 10   97.27     LegendNANA
06:00 5.6 4.9 95 28 12   97.44     LegendNANA
07:00 4.4 3.5 94 26 15   97.61     LegendNANA
08:00 3.4 2.4 93 27 12   97.77     LegendNANA
09:00 3.1 2.2 94 27 12   97.84     LegendNANA
10:00 4.1 3.4 95 27 10   97.90     LegendNANA
11:00 5.6 4.2 91 27 11   97.94     LegendNANA
12:00 6.5 4.4 86 27 9   97.99     LegendNANA
13:00 7.1 3.7 79 28 12   97.98     LegendNANA
14:00 7.7 3.8 76 28 10   98.07     LegendNANA
15:00 7.8 4.2 78 27 8   98.14     LegendNANA
16:00 8.0 4.3 78 27 9   98.24     LegendNANA
17:00 7.1 5.1 87 28 7   98.33     LegendNANA
18:00 7.3 4.9 85 29 7   98.40     LegendNANA
19:00 7.5 4.0 79 29 8   98.48     LegendNANA
20:00 7.3 3.5 77 29 10   98.55     LegendNANA
21:00 7.3 3.4 76 29 11   98.62     LegendNANA
22:00 7.0 3.6 79 29 5   98.69     LegendNANA
23:00 6.6 3.6 81 25 5   98.73     LegendNANA

Notes on Data Quality.

Legend

  • E = Estimated
  • M = Missing
  • NA = Not Available*
  • [empty] = Indicates an unobserved value
Date modified: